Change the Weather History Date:

Tuesday, November 13, 2012

  Actual Average Record
Temperature  
Mean Temperature 46 °F -  
Max Temperature 51 °F 47 °F 57 °F (2013)
Min Temperature 41 °F 35 °F 30 °F (2014)
Degree Days  
Heating Degree Days 19    
Moisture  
Dew Point 46 °F    
Average Humidity 95    
Maximum Humidity 100    
Minimum Humidity 82    
Precipitation  
Precipitation 0.01 in 0.19 in - ()
Sea Level Pressure  
Sea Level Pressure 30.17 in    
Wind  
Wind Speed 4 mph ()    
Max Wind Speed 12 mph    
Max Gust Speed -    
Visibility 9.4 miles    
Events Rain    
Averages and records for this station are not official NWS values.
T = Trace of Precipitation, MM = Missing Value Source: Averaged Metar Reports

Daily Weather History Graph

Daily Weather History Graph

Search for Another Location

Airport or City:

Trip Planner

Search our weather history database for the weather conditions in past years. The results will help you decide how hot, cold, wet, or windy it might be!

Date:

Astronomy

Nov. 13, 2012 Rise Set
Actual Time 7:19 AM PST 4:35 PM PST
Civil Twilight 6:45 AM PST 5:09 PM PST
Nautical Twilight 6:07 AM PST 5:47 PM PST
Astronomical Twilight 5:30 AM PST 6:24 PM PST
Moon 7:06 AM PST (11/13) 4:30 PM PST (11/13)
Length of Visible Light 10h 24m
Length of Day
9h 15m
Waning Crescent, 0% of the Moon is Illuminated
Nov 13
Waning Crescent
Nov 13
New
Nov 20
First Quarter
Nov 28
Full
Dec 6
Last Quarter

Hourly Weather History & Observations

Time (PST) Temp. Windchill Dew Point Humidity Pressure Visibility Wind Dir Wind Speed Gust Speed Precip Events Conditions
12:00 AM 48.2 °F - 46.4 °F 93% 30.17 in 15.0 mi South 11.5 mph - N/A   Overcast
1:00 AM 48.2 °F - 46.4 °F 93% 30.18 in 15.0 mi SSE 9.2 mph - N/A   Overcast
2:00 AM 48.2 °F - 46.4 °F 93% 30.19 in 15.0 mi SSE 5.8 mph - N/A   Overcast
3:00 AM 48.2 °F - 46.4 °F 93% 30.18 in 15.0 mi SE 6.9 mph - N/A   Overcast
4:00 AM 47 °F - 46 °F 97% 30.18 in 15 mi SW 3.5 mph - -   Overcast
4:00 AM 48.2 °F - 46.4 °F 93% 30.18 in 15.0 mi West 2.3 mph - N/A   Overcast
5:00 AM 46.4 °F 45.2 °F 46.4 °F 100% 30.18 in 15.0 mi SW 3.5 mph - N/A   Overcast
5:12 AM 44.6 °F 43.1 °F - N/A% - 15.0 mi WSW 3.5 mph - N/A Rain Light Rain
6:00 AM 46.4 °F - 46.4 °F 100% 30.18 in 15.0 mi Calm Calm - N/A Rain Light Rain
7:00 AM 46.4 °F 45.2 °F 46.4 °F 100% 30.18 in 15.0 mi South 3.5 mph - N/A Rain Light Rain
7:47 AM 44.6 °F - - N/A% - 15.0 mi Calm Calm - N/A   Overcast
8:00 AM 44.6 °F 43.1 °F 44.6 °F 100% 30.18 in 15.0 mi ESE 3.5 mph - N/A   Overcast
8:18 AM 46.4 °F - - N/A% - 5.0 mi Calm Calm - N/A   Overcast
9:00 AM 46.4 °F - 46.4 °F 100% 30.19 in 5.0 mi Calm Calm - N/A   Overcast
9:08 AM 46.4 °F - - N/A% - 5.0 mi Calm Calm - N/A   Overcast
9:18 AM 46.4 °F 44.3 °F - N/A% - 5.0 mi SSE 4.6 mph - N/A   Overcast
10:00 AM 49 °F - 47 °F 92% 30.19 in 5 mi South 4.6 mph - -   Mist
10:00 AM 48.2 °F - 48.2 °F 100% 30.19 in 5.0 mi South 3.5 mph - N/A   Overcast
11:00 AM 50.0 °F - 48.2 °F 94% 30.19 in 5.0 mi SSE 8.1 mph - N/A   Mostly Cloudy
12:00 PM 51.8 °F - 46.4 °F 82% 30.17 in 8.0 mi SE 6.9 mph - N/A   Mostly Cloudy
1:00 PM 50.0 °F - 48.2 °F 94% 30.16 in 12.0 mi SE 6.9 mph - N/A   Mostly Cloudy
2:00 PM 50.0 °F - 46.4 °F 87% 30.16 in 12.0 mi SSE 10.4 mph - N/A   Mostly Cloudy
2:34 PM 50.0 °F - - N/A% - 12.0 mi SSE 5.8 mph - N/A Rain Light Rain
3:00 PM 50.0 °F - 46.4 °F 87% 30.15 in 12.0 mi SSE 3.5 mph - N/A Rain Light Rain
4:00 PM 49 °F - 47 °F 91% 30.14 in 12 mi SE 3.5 mph - - Rain Light Rain
4:00 PM 48.2 °F - 46.4 °F 93% 30.14 in 12.0 mi SE 3.5 mph - N/A   Overcast
4:13 PM 48.2 °F - - N/A% - 12.0 mi SSE 3.5 mph - N/A Rain Light Rain Showers
4:37 PM 48.2 °F - - N/A% - 12.0 mi SE 4.6 mph - N/A   Mostly Cloudy
5:00 PM 48.2 °F - 46.4 °F 93% 30.13 in 12.0 mi SE 4.6 mph - N/A   Mostly Cloudy
6:00 PM 46.4 °F 44.3 °F 46.4 °F 100% 30.13 in 15.0 mi ESE 4.6 mph - N/A   Mostly Cloudy
7:00 PM 44.6 °F - 42.8 °F 93% 30.13 in 30.0 mi South 2.3 mph - N/A   Partly Cloudy
7:42 PM 42.8 °F - - N/A% - 5.0 mi WNW 2.3 mph - N/A   Partly Cloudy
8:00 PM 41.0 °F - 41.0 °F 100% 30.14 in 1.0 mi WNW 2.3 mph - N/A   Mostly Cloudy
8:04 PM 41.0 °F - - N/A% - 0.8 mi West 2.3 mph - N/A   Mist
8:24 PM 42.8 °F 40.1 °F - N/A% - 0.8 mi SW 4.6 mph - N/A   Mostly Cloudy
8:37 PM 42.8 °F 41.1 °F - N/A% - 1.5 mi WSW 3.5 mph - N/A   Mostly Cloudy
9:00 PM 42.8 °F 40.1 °F 42.8 °F 100% 30.17 in 4.0 mi WSW 4.6 mph - N/A Rain Light Rain
9:36 PM 42.8 °F 40.1 °F - N/A% - 5.0 mi WSW 4.6 mph - N/A   Overcast
10:00 PM 44 °F - 44 °F 97% 30.17 in 5 mi WSW 3.5 mph - - Rain Light Rain
10:00 PM 44.6 °F 42.2 °F 42.8 °F 93% 30.17 in 5.0 mi WSW 4.6 mph - N/A   Overcast
10:45 PM 44.6 °F 42.2 °F - N/A% - 6.0 mi WSW 4.6 mph - N/A   Overcast
11:00 PM 44.6 °F 43.1 °F 42.8 °F 93% 30.18 in 6.0 mi WSW 3.5 mph - N/A   Overcast